Corona, CA

3:29 AM PST on February 24, 2017 (GMT -0800)
Corona Municipal

Weather History for KAJO - November, 2013

Change the Weather History Date:

Friday, November 1, 2013

  Actual Average (KCNO) Record (KCNO)
Temperature  
Mean Temperature 61 °F -  
Max Temperature 88 °F 72 °F 90 °F (1999)
Min Temperature 34 °F 44 °F 39 °F (2000)
Degree Days  
Heating Degree Days 4    
Growing Degree Days 11 (Base 50)    
Moisture  
Dew Point 33 °F    
Average Humidity 47    
Maximum Humidity 100    
Minimum Humidity 10    
Precipitation  
Precipitation 0.00 in - - ()
Sea Level Pressure  
Sea Level Pressure 30.03 in    
Wind  
Wind Speed 2 mph (East)    
Max Wind Speed 10 mph    
Max Gust Speed -    
Visibility 10 miles    
Events      
Averages and records for this station are not official NWS values.
T = Trace of Precipitation, MM = Missing Value Source: NWS Daily Summary

Daily Weather History Graph

Daily Weather History Graph

Search for Another Location

Airport or City:

Trip Planner

Search our weather history database for the weather conditions in past years. The results will help you decide how hot, cold, wet, or windy it might be!

Date:

Astronomy

Nov. 01, 2013 Rise Set
Actual Time 7:10 AM PDT 5:57 PM PDT
Civil Twilight 6:44 AM PDT 6:23 PM PDT
Nautical Twilight 6:14 AM PDT 6:52 PM PDT
Astronomical Twilight 5:45 AM PDT 7:21 PM PDT
Moon 5:12 AM PDT (11/1) 4:49 PM PDT (11/1)
Length of Visible Light 11h 39m
Length of Day
10h 47m
Waning Crescent, 4% of the Moon is Illuminated
Nov 1
Waning Crescent
Nov 3
New
Nov 9
First Quarter
Nov 17
Full
Nov 25
Last Quarter

Hourly Weather History & Observations

Time (PDT) Temp. Dew Point Humidity Pressure Visibility Wind Dir Wind Speed Gust Speed Precip Events Conditions
12:56 AM 43.0 °F 41.0 °F 93% 30.05 in 10.0 mi Calm Calm - N/A   Clear
1:56 AM 41.0 °F 39.9 °F 96% 30.06 in 10.0 mi Calm Calm - N/A   Clear
2:56 AM 38.8 °F 38.8 °F 100% 30.07 in 10.0 mi Calm Calm - N/A   Clear
3:56 AM 38.8 °F 38.8 °F 100% 30.06 in 10.0 mi Calm Calm - N/A   Clear
4:56 AM 36.0 °F 36.0 °F 100% 30.08 in 10.0 mi Calm Calm - N/A   Clear
5:56 AM 34.0 °F 34.0 °F 100% 30.09 in 10.0 mi Calm Calm - N/A   Clear
6:56 AM 36.9 °F 36.9 °F 100% 30.10 in 10.0 mi Calm Calm - N/A   Clear
7:56 AM 38.8 °F 38.8 °F 100% 30.12 in 10.0 mi Calm Calm - N/A   Clear
8:56 AM 52.9 °F 39.9 °F 61% 30.12 in 10.0 mi Calm Calm - N/A   Clear
9:56 AM 63.9 °F 39.9 °F 41% 30.10 in 10.0 mi Calm Calm - N/A   Clear
10:56 AM 73.9 °F 39.9 °F 29% 30.09 in 10.0 mi Calm Calm - N/A   Clear
11:56 AM 82.9 °F 27.1 °F 13% 30.07 in 10.0 mi SE 10.4 mph - N/A   Clear
12:56 PM 84.9 °F 27.1 °F 12% 30.03 in 10.0 mi Variable 5.8 mph - N/A   Clear
1:56 PM 88.0 °F 27.1 °F 11% 30.00 in 10.0 mi Variable 5.8 mph - N/A   Clear
2:56 PM 88.9 °F 26.1 °F 10% 29.97 in 10.0 mi NNE 10.4 mph - N/A   Clear
3:56 PM 88.0 °F 25.2 °F 10% 29.95 in 10.0 mi NNE 9.2 mph - N/A   Clear
4:56 PM 86.9 °F 25.2 °F 11% 29.94 in 10.0 mi NE 8.1 mph - N/A   Clear
5:56 PM 79.9 °F 27.1 °F 14% 29.93 in 10.0 mi ENE 4.6 mph - N/A   Clear
6:56 PM 74.8 °F 28.0 °F 18% 29.95 in 6.0 mi East 5.8 mph - N/A   Haze
7:56 PM 73.9 °F 30.0 °F 20% 29.95 in 10.0 mi SE 3.5 mph - N/A   Clear
8:56 PM 73.9 °F 28.0 °F 18% 29.96 in 10.0 mi ESE 9.2 mph - N/A   Clear
9:56 PM 66.9 °F 30.0 °F 25% 29.98 in 10.0 mi SE 6.9 mph - N/A   Clear
10:56 PM 64.9 °F 30.0 °F 27% 29.99 in 10.0 mi ESE 9.2 mph - N/A   Clear
11:56 PM 64.9 °F 29.1 °F 26% 29.99 in 10.0 mi SSE 3.5 mph - N/A   Clear